QPF
0.00 0.00 0.00 0.00 0.00 0.00 0.00 0.00 0.00 0.00 0.00 0.00 0.00 0.00 0.00 0.00 0.00 0.00 0.00 0.00 0.00 0.00 0.00 0.00 0.00 0.00 0.00 0.00 0.00 0.00 0.00 0.00 0.00 0.00 0.00 0.00 0.00 0.00 0.00 0.00 0.00 0.00 0.00 0.00 0.00
0.00 0.00 0.00 0.00 0.00 0.00 0.00 0.00 0.00 0.00 0.00 0.00 0.00 0.00 0.00 0.00 0.00 0.00 0.00 0.00 0.00 0.00 0.00 0.00 0.00 0.00 0.00 0.00 0.00 0.00 0.00 0.00 0.00 0.00 0.00 0.00 0.00 0.00 0.00 0.00 0.00 0.00 0.00 0.00 0.00
0.00 0.00 0.00 0.00 0.00 0.00 0.00 0.00 0.00 0.00 0.00 0.00 0.00 0.00 0.00 0.00 0.00 0.00 0.00 0.00 0.00 0.00 0.00 0.00 0.00 0.00 0.00 0.00 0.00 0.00 0.00 0.00 0.00 0.00 0.00 0.00 0.00 0.00 0.00 0.00 0.00 0.00 0.00 0.00 0.00
0.00 0.00 0.00 0.00 0.00 0.00 0.00 0.00 0.00 0.00 0.00 0.00 0.00 0.00 0.00 0.00 0.00 0.00 0.00 0.00 0.00 0.00 0.00 0.00 0.00 0.00 0.00 0.00 0.00 0.00 0.00 0.00 0.00 0.00 0.00 0.00 0.00 0.00 0.00 0.00 0.00 0.00 0.00 0.00 0.00
0.00 0.00 0.00 0.00 0.00 0.00 0.00 0.00 0.00 0.00 0.00 0.00 0.00 0.00 0.00 0.00 0.00 0.00 0.00 0.00 0.00 0.00 0.00 0.00 0.00 0.00 0.00 0.00 0.00 0.00 0.00 0.00 0.00 0.00 0.00 0.00 0.00 0.00 0.00 0.00 0.00 0.00 0.00 0.00 0.00
0.00 0.00 0.00 0.00 0.00 0.00 0.00 0.00 0.00 0.00 0.00 0.00 0.00 0.00 0.00 0.00 0.00 0.00 0.00 0.00 0.00 0.00 0.00 0.00 0.00 0.00 0.00 0.00 0.00 0.00 0.00 0.00 0.00 0.00 0.00 0.00 0.00 0.00 0.00 0.00 0.00 0.00 0.00 0.00 0.00
0.00 0.00 0.00 0.00 0.00 0.00 0.00 0.00 0.00 0.00 0.00 0.00 0.00 0.00 0.00 0.00 0.00 0.00 0.00 0.00 0.00 0.00 0.00 0.00 0.00 0.00 0.00 0.00 0.00 0.00 0.00 0.00 0.00 0.00 0.00 0.00 0.00 0.00 0.00 0.00 0.00 0.00 0.00 0.00 0.00
0.00 0.00 0.00 0.00 0.00 0.00 0.00 0.00 0.00 0.00 0.00 0.00 0.00 0.00 0.00 0.00 0.00 0.00 0.00 0.00 0.00 0.00 0.00 0.00 0.00 0.00 0.00 0.00 0.00 0.00 0.00 0.00 0.00 0.00 0.00 0.00 0.00 0.00 0.00 0.00 0.00 0.00 0.00 0.00 0.00
0.00 0.00 0.00 0.00 0.00 0.00 0.00 0.00 0.00 0.00 0.00 0.00 0.00 0.00 0.00 0.00 0.00 0.00 0.00 0.00 0.00 0.00 0.00 0.00 0.00 0.00 0.00 0.00 0.00 0.00 0.00 0.00 0.00 0.00 0.00 0.00 0.00 0.00 0.00 0.00 0.00 0.00 0.00 0.00 0.00
0.00 0.00 0.00 0.00 0.00 0.00 0.00 0.00 0.00 0.00 0.00 0.00 0.00 0.00 0.00 0.00 0.00 0.00 0.00 0.00 0.00 0.00 0.00 0.00 0.00 0.00 0.00 0.00 0.00 0.00 0.00 0.00 0.00 0.00 0.00 0.00 0.00 0.00 0.00 0.00 0.00 0.00 0.00 0.00 0.00
0.00 0.00 0.00 0.00 0.00 0.00 0.00 0.00 0.00 0.00 0.00 0.00 0.00 0.00 0.00 0.00 0.00 0.00 0.00 0.00 0.00 0.00 0.00 0.00 0.00 0.00 0.00 0.00 0.00 0.00 0.00 0.00 0.00 0.00 0.00 0.00 0.00 0.00 0.00 0.00 0.00 0.00 0.00 0.00 0.00
0.00 0.00 0.00 0.00 0.00 0.00 0.00 0.00 0.00 0.00 0.00 0.00 0.00 0.00 0.00 0.00 0.00 0.00 0.00 0.00 0.00 0.00 0.00 0.00 0.00 0.00 0.00 0.00 0.00 0.00 0.00 0.00 0.00 0.00 0.00 0.00 0.00 0.00 0.00 0.00 0.00 0.00 0.00 0.00 0.00
0.00 0.00 0.00 0.00 0.00 0.00 0.00 0.00 0.00 0.00 0.00 0.00 0.00 0.00 0.00 0.00 0.00 0.00 0.00 0.00 0.00 0.00 0.00 0.00 0.00 0.00 0.00 0.00 0.00 0.00 0.00 0.00 0.00 0.00 0.00 0.00 0.00 0.00 0.00 0.00 0.00 0.00 0.00 0.00 0.00
0.00 0.00 0.00 0.00 0.00 0.00 0.00 0.00 0.00 0.00 0.00 0.00 0.00 0.00 0.00 0.00 0.00 0.00 0.00 0.00 0.00 0.00 0.00 0.00 0.00 0.00 0.00 0.00 0.00 0.00 0.00 0.00 0.00 0.00 0.00 0.00 0.00 0.00 0.00 0.00 0.00 0.00 0.00 0.00 0.00
0.00 0.00 0.00 0.00 0.00 0.00 0.00 0.00 0.00 0.00 0.00 0.00 0.00 0.00 0.00 0.00 0.00 0.00 0.00 0.00 0.00 0.00 0.00 0.00 0.00 0.00 0.00 0.00 0.00 0.00 0.00 0.00 0.00 0.00 0.00 0.00 0.00 0.00 0.00 0.00 0.00 0.00 0.00 0.00 0.00
0.00 0.00 0.00 0.00 0.00 0.00 0.00 0.00 0.00 0.00 0.00 0.00 0.00 0.00 0.00 0.00 0.00 0.00 0.00 0.00 0.00 0.00 0.00 0.00 0.00 0.00 0.00 0.00 0.00 0.00 0.00 0.00 0.00 0.00 0.00 0.00 0.00 0.00 0.00 0.00 0.00 0.00 0.00 0.00 0.00
0.00 0.00 0.00 0.00 0.00 0.00 0.00 0.00 0.00 0.00 0.00 0.00 0.00 0.00 0.00 0.00 0.00 0.00 0.00 0.00 0.00 0.00 0.00 0.00 0.00 0.00 0.00 0.00 0.00 0.00 0.00 0.00 0.00 0.00 0.00 0.00 0.00 0.00 0.00 0.00 0.00 0.00 0.00 0.00 0.00
0.00 0.00 0.00 0.00 0.00 0.00 0.00 0.00 0.00 0.00 0.00 0.00 0.00 0.00 0.00 0.00 0.00 0.00 0.00 0.00 0.00 0.00 0.00 0.00 0.00 0.00 0.00 0.00 0.00 0.00 0.00 0.00 0.00 0.00 0.00 0.00 0.00 0.00 0.00 0.00 0.00 0.00 0.00 0.00 0.00
0.00 0.00 0.00 0.00 0.00 0.00 0.00 0.00 0.00 0.00 0.00 0.00 0.00 0.00 0.00 0.00 0.00 0.00 0.00 0.00 0.00 0.00 0.00 0.00 0.00 0.00 0.00 0.00 0.00 0.00 0.00 0.00 0.00 0.00 0.00 0.00 0.00 0.00 0.00 0.00 0.00 0.00 0.00 0.00 0.00
0.00 0.00 0.00 0.00 0.00 0.00 0.00 0.00 0.00 0.00 0.00 0.00 0.00 0.00 0.00 0.00 0.00 0.00 0.00 0.00 0.00 0.00 0.00 0.00 0.00 0.00 0.00 0.00 0.00 0.00 0.00 0.00 0.00 0.00 0.00 0.00 0.00 0.00 0.00 0.00 0.00 0.00 0.00 0.00 0.00
0.00 0.00 0.00 0.00 0.00 0.00 0.00 0.00 0.00 0.00 0.00 0.00 0.00 0.00 0.00 0.00 0.00 0.00 0.00 0.00 0.00 0.00 0.00 0.00 0.00 0.00 0.00 0.00 0.00 0.00 0.00 0.00 0.00 0.00 0.00 0.00 0.00 0.00 0.00 0.00 0.00 0.00 0.00 0.00 0.00
0.00 0.00 0.00 0.00 0.00 0.00 0.00 0.00 0.00 0.00 0.00 0.00 0.00 0.00 0.00 0.00 0.00 0.00 0.00 0.00 0.00 0.00 0.00 0.00 0.00 0.00 0.00 0.00 0.00 0.00 0.00 0.00 0.00 0.00 0.00 0.00 0.00 0.00 0.00 0.00 0.00 0.00 0.00 0.00 0.00
0.00 0.00 0.00 0.00 0.00 0.00 0.00 0.00 0.00 0.00 0.00 0.00 0.00 0.00 0.00 0.00 0.00 0.00 0.00 0.00 0.00 0.00 0.00 0.00 0.00 0.00 0.00 0.00 0.00 0.00 0.00 0.00 0.00 0.00 0.00 0.00 0.00 0.00 0.00 0.00 0.00 0.00 0.00 0.00 0.00
0.00 0.00 0.00 0.00 0.00 0.00 0.00 0.00 0.00 0.00 0.00 0.00 0.00 0.00 0.00 0.00 0.00 0.00 0.00 0.00 0.00 0.00 0.00 0.00 0.00 0.00 0.00 0.00 0.00 0.00 0.00 0.00 0.00 0.00 0.00 0.00 0.00 0.00 0.00 0.00 0.00 0.00 0.00 0.00 0.00
0.00 0.00 0.00 0.00 0.00 0.00 0.00 0.00 0.00 0.00 0.00 0.00 0.00 0.00 0.00 0.00 0.00 0.00 0.00 0.00 0.00 0.00 0.00 0.00 0.00 0.00 0.00 0.00 0.00 0.00 0.00 0.00 0.00 0.00 0.00 0.00 0.00 0.00 0.00 0.00 0.00 0.00 0.00 0.00 0.00
0.00 0.00 0.00 0.00 0.00 0.00 0.00 0.00 0.00 0.00 0.00 0.00 0.00 0.00 0.00 0.00 0.00 0.00 0.00 0.00 0.00 0.00 0.00 0.00 0.00 0.00 0.00 0.00 0.00 0.00 0.00 0.00 0.00 0.00 0.00 0.00 0.00 0.00 0.00 0.00 0.00 0.00 0.00 0.00 0.00
0.00 0.00 0.00 0.00 0.00 0.00 0.00 0.00 0.00 0.00 0.00 0.00 0.00 0.00 0.00 0.00 0.00 0.00 0.00 0.00 0.00 0.00 0.00 0.00 0.00 0.00 0.00 0.00 0.00 0.00 0.00 0.00 0.00 0.00 0.00 0.00 0.00 0.00 0.00 0.00 0.00 0.00 0.00 0.00 0.00
MSLP
1021.41 1021.05 1020.67 1020.32 1019.96 1019.45 1019.08 1018.78 1018.49 1018.11 1017.57 1017.07 1016.64 1016.16 1015.78 1015.41 1014.70 1014.34 1013.31 1010.50 1010.26 1010.17 1010.35 1010.44 1010.39 1010.43 1010.66 1011.02 1011.21 1011.65 1012.70 1012.90 1012.26 1011.02 1009.27 1007.71 1007.89 1007.39 1007.14 1007.50 1007.63 1007.51 1007.30 1007.37 1008.51
1021.36 1021.11 1020.71 1020.21 1019.86 1019.41 1019.12 1018.78 1018.42 1017.97 1017.45 1016.88 1016.45 1016.02 1015.65 1015.38 1014.81 1013.10 1010.08 1009.83 1009.99 1010.16 1010.34 1010.52 1010.61 1010.51 1010.90 1011.10 1011.33 1011.79 1012.54 1012.01 1010.89 1009.84 1009.08 1008.16 1007.87 1007.65 1007.29 1007.17 1007.27 1007.44 1007.33 1007.61 1008.79
1021.25 1021.19 1020.64 1020.22 1019.83 1019.35 1018.99 1018.64 1018.27 1017.76 1017.26 1016.73 1016.31 1015.88 1015.52 1015.40 1014.32 1010.82 1009.46 1009.57 1009.90 1010.18 1010.25 1010.41 1010.50 1010.54 1010.93 1011.07 1011.05 1011.42 1011.62 1010.88 1009.94 1009.30 1008.99 1008.17 1007.05 1007.19 1007.02 1007.27 1006.77 1006.71 1007.38 1007.98 1008.70
1021.49 1021.24 1020.66 1020.21 1019.79 1019.28 1018.77 1018.46 1018.01 1017.46 1017.08 1016.61 1016.08 1015.70 1015.42 1015.19 1013.17 1009.95 1009.55 1009.68 1009.93 1010.11 1010.32 1010.34 1010.52 1010.76 1010.99 1011.05 1010.83 1011.16 1010.42 1010.19 1009.46 1008.57 1008.62 1007.93 1006.83 1006.61 1006.64 1005.98 1005.47 1006.43 1006.74 1007.43 1008.27
1021.69 1021.16 1020.64 1020.15 1019.78 1019.12 1018.55 1018.24 1017.69 1017.16 1016.78 1016.39 1015.95 1015.63 1015.31 1014.36 1012.02 1009.66 1009.85 1010.03 1010.11 1010.28 1010.36 1010.45 1010.62 1010.89 1011.00 1010.88 1010.68 1010.64 1010.01 1009.52 1008.93 1008.34 1008.05 1007.66 1006.84 1006.52 1006.08 1005.50 1005.38 1006.41 1007.11 1007.60 1007.72
1021.58 1021.07 1020.60 1020.09 1019.63 1018.89 1018.32 1017.90 1017.31 1016.81 1016.46 1016.17 1015.80 1015.65 1015.23 1013.18 1009.97 1009.72 1010.04 1010.30 1010.29 1010.32 1010.28 1010.33 1010.33 1010.41 1010.65 1010.66 1010.73 1010.18 1009.85 1009.29 1008.40 1007.95 1007.50 1006.98 1006.10 1006.25 1005.20 1005.25 1005.78 1006.23 1006.78 1007.20 1007.26
1021.58 1021.15 1020.55 1020.09 1019.39 1018.66 1018.03 1017.42 1016.82 1016.33 1016.09 1015.81 1015.62 1015.41 1014.66 1011.67 1009.85 1009.86 1010.11 1010.02 1009.95 1009.97 1010.01 1009.93 1009.93 1010.28 1010.41 1010.55 1010.41 1010.21 1010.04 1009.07 1008.15 1007.65 1007.15 1006.59 1005.82 1005.52 1005.02 1005.67 1005.86 1006.13 1006.27 1006.57 1006.85
1021.60 1021.16 1020.49 1019.95 1019.16 1018.29 1017.56 1016.86 1016.16 1015.77 1015.49 1015.43 1015.45 1015.22 1013.32 1010.25 1009.92 1009.99 1009.84 1009.69 1009.49 1009.66 1009.71 1009.36 1009.71 1010.31 1010.42 1010.40 1010.47 1010.67 1010.50 1010.10 1008.41 1007.84 1006.79 1006.89 1005.92 1004.52 1005.01 1005.59 1006.12 1006.06 1006.00 1006.16 1006.13
1021.61 1021.05 1020.41 1019.81 1018.95 1017.89 1016.96 1016.32 1015.68 1015.09 1015.24 1015.15 1015.41 1014.73 1012.35 1009.86 1009.71 1008.90 1009.09 1009.44 1009.11 1009.11 1009.24 1009.29 1009.72 1010.75 1010.92 1011.47 1011.83 1011.72 1011.36 1010.68 1009.36 1008.01 1007.77 1007.49 1006.91 1005.42 1005.38 1005.51 1005.75 1005.91 1005.71 1005.53 1005.45
1021.64 1021.22 1020.43 1019.64 1018.66 1017.64 1016.49 1015.63 1015.30 1015.29 1015.28 1014.99 1014.77 1014.60 1011.66 1010.38 1009.41 1008.73 1008.76 1008.97 1009.14 1009.26 1009.56 1009.84 1010.93 1011.59 1012.26 1012.43 1012.76 1012.28 1011.75 1010.88 1010.09 1008.33 1007.96 1007.78 1007.16 1006.03 1005.13 1005.26 1005.77 1005.73 1005.57 1005.13 1005.28
1021.81 1021.00 1020.41 1019.51 1018.41 1017.62 1016.76 1015.59 1015.92 1015.56 1014.89 1014.36 1013.78 1013.10 1011.59 1010.39 1009.28 1008.91 1008.67 1008.98 1009.35 1009.89 1010.56 1010.95 1011.79 1012.22 1012.21 1012.34 1012.13 1012.00 1011.78 1011.22 1009.70 1008.59 1008.57 1007.96 1007.65 1006.54 1005.63 1005.37 1005.38 1005.46 1005.13 1004.86 1004.77
1021.64 1020.98 1020.37 1019.31 1018.20 1017.57 1017.54 1016.94 1017.51 1017.39 1015.41 1013.28 1012.65 1012.38 1011.17 1011.00 1010.53 1009.20 1008.78 1009.39 1009.80 1010.48 1010.95 1011.52 1011.57 1011.31 1011.55 1011.55 1011.63 1011.47 1011.35 1010.67 1009.52 1008.78 1008.54 1008.23 1007.85 1006.86 1006.28 1005.63 1005.12 1004.76 1004.67 1004.19 1003.91
1021.68 1021.18 1020.44 1019.19 1017.99 1017.64 1017.99 1017.05 1016.59 1016.19 1015.84 1012.71 1011.70 1011.16 1010.30 1010.54 1010.22 1009.33 1009.09 1009.47 1010.06 1010.70 1011.23 1011.73 1010.91 1010.66 1010.64 1010.39 1010.82 1010.55 1010.48 1009.94 1009.84 1009.24 1009.01 1008.91 1008.36 1007.61 1006.16 1005.43 1004.66 1003.93 1003.46 1003.34 1003.21
1021.75 1021.35 1020.72 1019.17 1018.11 1018.97 1017.73 1016.60 1016.31 1015.99 1015.43 1012.18 1010.68 1009.36 1009.59 1009.60 1009.49 1008.67 1008.76 1009.46 1010.17 1010.68 1011.16 1011.37 1010.68 1010.49 1010.25 1010.12 1009.76 1009.78 1009.12 1009.53 1009.78 1010.03 1010.38 1009.96 1010.10 1008.71 1007.22 1006.07 1004.97 1004.13 1003.54 1002.98 1002.65
1021.77 1021.38 1020.91 1020.54 1020.52 1019.47 1017.59 1016.69 1016.06 1015.73 1014.33 1010.90 1009.49 1008.40 1008.97 1009.45 1009.15 1008.86 1008.55 1009.19 1010.00 1010.53 1011.13 1011.05 1010.44 1010.02 1009.84 1009.09 1009.09 1009.21 1008.95 1009.77 1010.23 1010.89 1011.05 1010.82 1010.76 1009.16 1008.09 1006.91 1005.44 1004.44 1003.84 1003.56 1004.01
1021.62 1021.24 1021.06 1020.70 1020.86 1018.59 1017.56 1016.83 1016.26 1015.89 1012.91 1010.32 1009.08 1008.91 1009.32 1009.30 1009.15 1009.03 1009.02 1009.32 1009.85 1010.57 1010.91 1010.83 1009.91 1009.54 1008.69 1008.17 1008.46 1008.91 1009.54 1010.54 1011.64 1012.11 1012.39 1011.83 1011.50 1010.34 1008.97 1008.04 1006.50 1005.14 1003.92 1003.72 1003.61
1021.35 1020.89 1021.03 1020.76 1019.33 1018.23 1017.66 1017.14 1016.72 1015.00 1012.16 1010.78 1009.71 1009.56 1009.78 1009.85 1009.69 1009.57 1009.80 1010.18 1010.72 1011.34 1011.58 1010.80 1009.95 1008.93 1008.47 1008.33 1008.55 1009.47 1010.99 1012.37 1013.52 1013.95 1013.68 1012.10 1011.71 1010.63 1008.67 1007.74 1006.90 1005.96 1004.86 1004.40 1004.16
1020.87 1020.28 1019.73 1019.03 1018.55 1018.35 1018.07 1017.62 1016.42 1014.07 1012.46 1011.03 1010.27 1010.24 1010.74 1010.63 1010.30 1010.22 1010.61 1011.06 1011.16 1011.50 1011.92 1011.68 1010.46 1009.29 1008.64 1008.64 1008.91 1009.90 1011.30 1013.04 1014.26 1015.08 1013.98 1012.34 1011.32 1009.47 1008.15 1007.34 1006.84 1006.14 1005.33 1004.64 1004.53
1020.59 1020.04 1019.60 1017.89 1018.07 1018.64 1018.34 1017.71 1015.92 1014.11 1012.75 1011.79 1011.28 1011.62 1012.03 1011.79 1011.48 1011.22 1011.62 1011.97 1011.67 1011.61 1012.03 1011.91 1010.91 1009.59 1008.99 1008.74 1009.12 1010.47 1011.69 1012.86 1014.05 1014.96 1014.70 1012.97 1011.14 1009.35 1008.13 1007.30 1006.69 1006.08 1005.79 1005.52 1005.17
1021.54 1020.97 1019.22 1017.39 1017.69 1018.26 1018.47 1017.42 1015.56 1013.72 1012.66 1012.22 1012.51 1012.69 1013.04 1012.88 1012.48 1012.33 1012.57 1012.45 1012.20 1011.90 1011.67 1012.31 1011.81 1010.66 1009.83 1009.49 1009.91 1010.54 1011.85 1013.25 1014.61 1015.59 1015.27 1013.58 1012.28 1010.77 1009.24 1008.34 1007.82 1007.39 1007.14 1006.75 1006.10
1021.91 1020.66 1017.60 1017.30 1017.67 1018.29 1018.65 1017.22 1015.28 1013.36 1012.66 1012.62 1013.04 1013.44 1013.79 1013.90 1013.57 1013.49 1013.41 1012.96 1012.65 1012.40 1012.26 1012.84 1013.05 1012.24 1011.29 1011.63 1011.71 1011.82 1013.08 1014.16 1015.27 1015.83 1015.74 1014.71 1012.87 1011.15 1010.41 1009.53 1009.09 1008.84 1008.72 1008.10 1007.63
1021.97 1020.55 1017.88 1017.51 1018.43 1018.92 1018.33 1016.64 1015.04 1013.72 1012.96 1012.98 1013.23 1013.82 1014.25 1014.41 1014.40 1014.21 1014.29 1013.96 1013.48 1013.25 1013.53 1013.96 1014.42 1014.35 1013.67 1012.81 1012.50 1013.02 1014.23 1014.80 1016.02 1016.47 1016.34 1015.54 1012.71 1011.10 1010.94 1010.72 1010.36 1010.13 1009.51 1008.98 1008.43
1021.99 1020.42 1018.10 1017.80 1018.84 1019.09 1017.75 1016.39 1015.20 1014.23 1013.59 1013.45 1013.80 1014.12 1014.49 1014.91 1015.17 1014.98 1015.00 1014.72 1014.11 1014.28 1014.74 1014.75 1015.46 1015.57 1014.64 1014.12 1013.59 1014.11 1014.75 1015.05 1015.83 1016.40 1016.46 1015.93 1013.27 1011.13 1011.52 1011.35 1010.93 1010.83 1010.22 1009.77 1008.98
1022.11 1021.15 1019.53 1018.90 1019.17 1018.61 1017.76 1016.53 1015.40 1014.23 1013.90 1013.82 1014.06 1014.34 1014.87 1015.30 1015.66 1015.88 1015.62 1015.36 1015.21 1015.35 1015.36 1015.24 1016.35 1016.48 1016.26 1015.73 1015.50 1015.34 1015.28 1015.28 1015.63 1016.41 1016.37 1015.77 1014.26 1012.71 1012.70 1012.77 1012.49 1012.15 1011.68 1011.12 1010.65
1022.25 1021.20 1020.07 1019.78 1019.26 1018.50 1017.71 1016.82 1015.74 1014.83 1014.35 1014.32 1014.55 1014.84 1015.29 1015.88 1016.35 1016.91 1016.71 1016.34 1015.96 1016.06 1016.15 1016.72 1017.27 1017.10 1016.59 1016.09 1015.73 1015.51 1015.23 1015.14 1015.51 1015.59 1016.06 1015.36 1015.05 1014.20 1013.96 1014.14 1013.82 1013.30 1012.52 1011.78 1011.06
1021.85 1021.23 1020.22 1019.54 1018.89 1018.50 1017.94 1016.89 1016.00 1015.33 1015.09 1015.11 1015.21 1015.52 1015.80 1016.36 1016.66 1017.04 1017.15 1017.20 1017.12 1017.01 1017.38 1017.85 1018.10 1018.00 1017.48 1016.74 1016.26 1015.69 1015.02 1014.74 1014.83 1015.23 1015.62 1015.47 1015.23 1015.45 1014.95 1014.74 1014.34 1014.26 1013.67 1013.07 1012.46
1021.46 1020.80 1020.41 1019.90 1019.13 1018.71 1018.07 1017.10 1016.30 1015.84 1015.97 1015.80 1015.73 1016.20 1016.68 1016.91 1016.95 1017.02 1017.19 1017.44 1017.56 1017.80 1018.23 1018.67 1018.96 1019.09 1018.45 1017.61 1016.86 1016.14 1014.93 1014.71 1014.87 1015.52 1015.80 1015.95 1016.34 1015.93 1015.66 1015.47 1015.45 1015.16 1014.64 1013.98 1013.28
Thickness
5722 5725 5730 5734 5737 5741 5744 5746 5749 5752 5756 5759 5763 5767 5770 5772 5778 5780 5782 5806 5809 5810 5809 5805 5803 5798 5795 5785 5787 5780 5741 5733 5751 5764 5781 5803 5789 5809 5815 5802 5808 5816 5817 5823 5817
5720 5723 5727 5732 5736 5739 5741 5744 5747 5752 5756 5760 5763 5767 5769 5771 5774 5782 5812 5814 5812 5810 5804 5796 5788 5792 5778 5780 5777 5760 5737 5751 5773 5785 5785 5793 5790 5801 5799 5801 5804 5810 5821 5823 5814
5718 5720 5725 5730 5734 5737 5740 5743 5747 5751 5755 5759 5762 5766 5768 5769 5775 5795 5815 5815 5812 5809 5807 5801 5795 5789 5775 5777 5776 5765 5750 5769 5783 5789 5789 5791 5799 5804 5798 5789 5803 5807 5811 5813 5811
5713 5717 5723 5727 5731 5735 5740 5743 5747 5752 5755 5759 5762 5765 5766 5768 5761 5805 5813 5812 5810 5808 5803 5796 5788 5776 5768 5768 5778 5765 5775 5778 5786 5798 5792 5793 5810 5809 5804 5810 5826 5819 5821 5816 5810
5709 5714 5719 5725 5729 5734 5739 5743 5748 5752 5755 5758 5761 5763 5766 5766 5773 5808 5808 5807 5806 5803 5794 5789 5781 5774 5765 5770 5773 5770 5782 5789 5791 5793 5794 5798 5801 5802 5807 5821 5827 5821 5814 5811 5812
5707 5712 5717 5722 5727 5733 5738 5743 5748 5752 5755 5757 5760 5761 5763 5757 5804 5805 5805 5802 5800 5797 5793 5791 5786 5784 5774 5773 5769 5780 5779 5781 5793 5796 5799 5800 5806 5807 5820 5823 5818 5816 5811 5812 5815
5703 5707 5714 5718 5725 5732 5738 5743 5750 5754 5756 5758 5759 5761 5760 5768 5803 5803 5802 5799 5801 5798 5790 5796 5795 5786 5782 5772 5781 5780 5770 5778 5793 5799 5794 5799 5794 5796 5818 5811 5808 5811 5814 5815 5814
5698 5704 5710 5716 5724 5732 5739 5745 5752 5756 5758 5758 5758 5759 5757 5799 5801 5799 5800 5797 5802 5800 5797 5801 5797 5786 5782 5784 5771 5767 5762 5747 5781 5788 5799 5797 5770 5810 5813 5804 5800 5807 5813 5815 5817
5694 5700 5707 5714 5723 5733 5741 5748 5754 5758 5757 5757 5755 5757 5758 5800 5793 5806 5803 5792 5799 5800 5799 5801 5792 5772 5769 5750 5737 5739 5734 5744 5758 5787 5782 5785 5771 5802 5806 5803 5800 5802 5810 5814 5819
5690 5695 5703 5711 5722 5732 5741 5750 5753 5752 5753 5755 5755 5747 5773 5774 5792 5802 5804 5799 5789 5787 5780 5776 5757 5746 5737 5728 5711 5732 5734 5740 5740 5773 5778 5771 5774 5793 5807 5809 5801 5800 5804 5813 5813
5684 5692 5699 5709 5720 5728 5737 5747 5740 5741 5750 5749 5753 5754 5766 5781 5795 5791 5799 5789 5783 5768 5748 5756 5738 5725 5735 5737 5741 5741 5736 5733 5755 5769 5768 5765 5769 5785 5800 5806 5800 5797 5803 5808 5812
5680 5688 5695 5707 5718 5725 5726 5731 5721 5724 5725 5754 5756 5755 5770 5771 5758 5777 5793 5769 5763 5744 5750 5736 5726 5747 5749 5748 5740 5737 5731 5732 5755 5768 5769 5762 5765 5783 5792 5797 5803 5806 5806 5809 5815
5676 5682 5691 5704 5717 5720 5715 5724 5728 5732 5715 5743 5757 5757 5767 5767 5756 5763 5779 5768 5755 5743 5740 5727 5743 5757 5753 5749 5739 5739 5736 5745 5744 5759 5761 5750 5753 5766 5788 5793 5801 5812 5818 5820 5820
5671 5677 5685 5701 5711 5702 5714 5725 5727 5730 5694 5735 5752 5766 5770 5771 5759 5782 5783 5768 5753 5741 5738 5733 5751 5753 5749 5742 5747 5736 5761 5757 5752 5738 5713 5742 5712 5740 5760 5775 5790 5803 5815 5817 5823
5667 5673 5679 5686 5687 5694 5714 5721 5725 5723 5685 5750 5756 5786 5774 5760 5767 5768 5786 5770 5746 5746 5744 5730 5744 5745 5739 5752 5760 5745 5766 5753 5749 5728 5728 5728 5710 5729 5751 5764 5783 5798 5809 5812 5809
5664 5671 5674 5680 5682 5700 5710 5717 5719 5688 5690 5739 5759 5754 5752 5759 5762 5768 5767 5774 5765 5747 5743 5738 5759 5756 5754 5767 5769 5768 5755 5735 5718 5709 5688 5718 5711 5714 5734 5750 5770 5791 5808 5810 5813
5663 5669 5670 5675 5691 5700 5706 5708 5679 5678 5733 5733 5741 5748 5746 5744 5749 5753 5746 5738 5724 5716 5714 5731 5743 5759 5768 5756 5759 5744 5715 5681 5686 5675 5686 5717 5707 5715 5746 5759 5770 5778 5793 5800 5805
5662 5670 5677 5685 5692 5694 5695 5687 5678 5711 5718 5743 5744 5741 5731 5740 5742 5743 5735 5724 5737 5729 5710 5706 5706 5748 5764 5754 5744 5741 5719 5679 5682 5670 5684 5710 5710 5730 5764 5766 5770 5780 5788 5801 5799
5658 5665 5672 5688 5690 5686 5682 5663 5682 5705 5721 5723 5731 5711 5711 5726 5732 5735 5726 5718 5732 5732 5713 5704 5713 5751 5761 5762 5755 5734 5711 5721 5688 5685 5679 5693 5721 5747 5760 5766 5771 5779 5784 5787 5793
5643 5647 5666 5685 5686 5681 5667 5665 5686 5714 5724 5722 5703 5710 5697 5707 5714 5714 5714 5726 5725 5736 5738 5724 5705 5739 5747 5756 5748 5737 5732 5697 5679 5680 5683 5687 5697 5704 5740 5750 5758 5764 5763 5772 5781
5633 5649 5675 5680 5679 5665 5653 5662 5688 5718 5723 5712 5704 5701 5700 5697 5706 5701 5706 5723 5725 5730 5731 5724 5710 5715 5735 5718 5717 5712 5696 5693 5685 5676 5665 5666 5686 5722 5733 5738 5747 5748 5749 5753 5761
5624 5644 5667 5672 5653 5639 5652 5670 5694 5707 5718 5711 5708 5701 5696 5693 5697 5699 5696 5703 5719 5723 5712 5712 5694 5691 5710 5719 5724 5713 5698 5685 5663 5672 5663 5659 5680 5734 5729 5729 5732 5733 5741 5748 5755
5622 5632 5661 5665 5643 5644 5659 5674 5689 5696 5703 5702 5696 5700 5699 5691 5684 5691 5690 5707 5711 5707 5698 5705 5681 5664 5680 5696 5707 5694 5694 5696 5675 5660 5663 5657 5673 5737 5722 5721 5724 5732 5735 5740 5748
5615 5632 5643 5648 5646 5653 5660 5667 5674 5693 5697 5700 5695 5696 5689 5687 5683 5678 5682 5696 5701 5697 5697 5695 5669 5666 5652 5672 5679 5678 5681 5688 5676 5648 5655 5658 5675 5707 5706 5703 5709 5713 5718 5721 5726
5606 5627 5638 5637 5644 5650 5658 5662 5667 5672 5688 5691 5687 5689 5684 5676 5671 5662 5672 5676 5689 5685 5685 5674 5664 5669 5671 5674 5678 5677 5677 5680 5668 5668 5652 5670 5670 5683 5689 5685 5689 5698 5708 5713 5717
5611 5621 5629 5636 5643 5642 5647 5657 5663 5672 5676 5676 5676 5680 5680 5668 5670 5661 5665 5667 5666 5673 5668 5658 5652 5657 5658 5666 5662 5661 5673 5675 5676 5671 5665 5664 5667 5667 5676 5678 5679 5680 5686 5690 5695
5603 5613 5621 5627 5635 5636 5636 5653 5663 5669 5668 5671 5675 5664 5658 5664 5669 5672 5670 5666 5669 5663 5651 5646 5639 5633 5630 5648 5649 5637 5661 5665 5666 5660 5656 5644 5652 5658 5658 5659 5658 5661 5666 5672 5677